Regional Weather Roundup
Issued by NWS

Home | Current Version | Previous Version | Graphics & Text | Print | Product List | Glossary On
Versions: 1 2 3 4 5 6 7 8 9 10 11 12 13 14 15 16 17 18 19 20 21 22 23 24 25 26 27 28 29 30 31 32 33 34 35 36 37 38 39 40 41 42 43 44 45 46 47 48 49 50
890
ASUS45 KPSR 290010
RWRAZ

ARIZONA HOURLY REGIONAL WEATHER ROUNDUP
NATIONAL WEATHER SERVICE PHOENIX AZ
500 PM MST TUE MAR 28 2017

NOTE: FAIR INDICATES FEW OR NO CLOUDS BELOW 12,000 FEET WITH NO
SIGNIFICANT WEATHER AND/OR OBSTRUCTIONS TO VISIBILITY.

AZZ001>003-036-290100-
NORTHWEST ARIZONA

CITY           SKY/WX    TMP DP  RH WIND       PRES   REMARKS
BULLHEAD CITY  SUNNY     77  19  11 NW18G31   29.90F
KINGMAN        SUNNY     65   3   8 N20       29.98S
6HR MIN TEMP:  57; 6HR MAX TEMP:  66;

$$

AZZ004>008-015-016-018-290100-
NORTH CENTRAL ARIZONA

CITY           SKY/WX    TMP DP  RH WIND       PRES   REMARKS
GRAND CANYON   SUNNY     53  21  28 NW9G20    29.98R
6HR MIN TEMP:  46; 6HR MAX TEMP:  54;

WILLIAMS       MOSUNNY   52  23  32 NW18G25   29.99R
PRESCOTT       MOSUNNY   61  23  23 N17G23    29.93R
6HR MIN TEMP:  52; 6HR MAX TEMP:  63;

FLAGSTAFF      MOSUNNY   49  23  36 N7        29.97R
6HR MIN TEMP:  42; 6HR MAX TEMP:  51;

PAYSON         PTSUNNY   57  28  33 NW6       29.94S
PAGE           SUNNY     64  25  22 N12       29.89R
6HR MIN TEMP:  55; 6HR MAX TEMP:  66;

$$

AZZ009>014-017-290100-
NORTHEAST ARIZONA

CITY           SKY/WX    TMP DP  RH WIND       PRES   REMARKS
WINSLOW        CLOUDY    58  28  32 NW21      29.90S
6HR MIN TEMP:  46; 6HR MAX TEMP:  59; 6HR PCP: TRACE;

SAINT JOHNS    LGT RAIN  46  38  73 NW16G26   29.89R
6HR MIN TEMP:  38; 6HR MAX TEMP:  53; 6HR PCP:  0.06;

WINDOW ROCK    CLOUDY    46  34  62 NW20      29.88R
6HR MIN TEMP:  39; 6HR MAX TEMP:  48; 6HR PCP:  0.06;

SHOW LOW       LGT RAIN  45  28  53 NW25G35   29.94R
$$

AZZ023-290100-
GREATER PHOENIX AREA

CITY           SKY/WX    TMP DP  RH WIND       PRES   REMARKS
PHOENIX        MOSUNNY   78  33  19 W13       29.80S
6HR MIN TEMP:  68; 6HR MAX TEMP:  79;

BUCKEYE        SUNNY     77  30  18 W14G21    29.82S
GLENDALE       MOSUNNY   81  32  17 SW17      29.81F
LUKE AFB       SUNNY     79  33  18 W16G22    29.79F
6HR MIN TEMP:  69; 6HR MAX TEMP:  79;

DEER VALLEY    SUNNY     75  32  20 SW8G20    29.80S
6HR MIN TEMP:  67; 6HR MAX TEMP:  77;

SCOTTSDALE     SUNNY     77  32  19 W9        29.82F
6HR MIN TEMP:  67; 6HR MAX TEMP:  77;

MESA-GATEWAY   MOSUNNY   75  34  22 W12G20    29.83F
CHANDLER       MOSUNNY   77  32  19 SW13      29.82S
$$

AZZ027-028-290100-
SOUTHWEST MARICOPA COUNTY AND PINAL COUNTY

CITY           SKY/WX    TMP DP  RH WIND       PRES   REMARKS
CASA GRANDE    NOT AVBL
GILA BEND      FAIR     N/A N/A N/A W16         N/A
$$

AZZ503-504-507>509-290100-
SOUTHEAST ARIZONA

CITY           SKY/WX    TMP DP  RH WIND       PRES   REMARKS
TUCSON         SUNNY     71  29  21 NW12G21   29.89S
6HR MIN TEMP:  62; 6HR MAX TEMP:  71;

DAVIS-MONTHAN  SUNNY     68  29  23 NW17G26   29.88R
6HR MIN TEMP:  60; 6HR MAX TEMP:  69;

NOGALES        SUNNY     66  26  22 NW13G22   29.91R
6HR MIN TEMP:  61; 6HR MAX TEMP:  68;

SIERRA VISTA   SUNNY     60  25  26 W16G29    29.94R
6HR MIN TEMP:  55; 6HR MAX TEMP:  62;

DOUGLAS        SUNNY     63  26  24 NW16G30   29.89R
6HR MIN TEMP:  56; 6HR MAX TEMP:  67;

SAFFORD        LGT RAIN  60  38  43 N17G28    29.84R
6HR MIN TEMP:  60; 6HR MAX TEMP:  69; 6HR PCP: TRACE;

$$

AZZ020-021-025-026-031-290100-
SOUTHWEST ARIZONA

CITY           SKY/WX    TMP DP  RH WIND       PRES   REMARKS
YUMA           SUNNY     81  19  10 N14G21    29.86F
6HR MIN TEMP:  75; 6HR MAX TEMP:  82;

$$

CAZ031-033-041-043-047-048-061-290100-
SOUTHERN CALIFORNIA

CITY           SKY/WX    TMP DP  RH WIND       PRES   REMARKS
DOWNTOWN L.A.  SUNNY     75  36  24 VRB6      29.93F
6HR MIN TEMP:  71; 6HR MAX TEMP:  79;

L.A. AIRPORT   MOSUNNY   68  50  52 W12       29.94F
6HR MIN TEMP:  68; 6HR MAX TEMP:  73;

SAN DIEGO      MOSUNNY   68  47  46 W10       29.97F
6HR MIN TEMP:  66; 6HR MAX TEMP:  71;

BURBANK        SUNNY     75  31  19 S9        29.93F
6HR MIN TEMP:  68; 6HR MAX TEMP:  78;

ONTARIO        MOSUNNY   77  27  15 W6        29.94F
6HR MIN TEMP:  69; 6HR MAX TEMP:  78;

RIVERSIDE      SUNNY     78  20  11 N14G20    29.93F
6HR MIN TEMP:  70; 6HR MAX TEMP:  79;

PALM SPRINGS   SUNNY     83  14   7 CALM      29.92S
6HR MIN TEMP:  76; 6HR MAX TEMP:  86;

EL CENTRO NAS  SUNNY     82  11   7 N13       29.90F
6HR MIN TEMP:  75; 6HR MAX TEMP:  83;

IMPERIAL       SUNNY     81  24  12 NW12      29.88F
6HR MIN TEMP:  74; 6HR MAX TEMP:  82;

BLYTHE         SUNNY     81  20  10 NW17G24   29.87F
6HR MIN TEMP:  72; 6HR MAX TEMP:  82;

NEEDLES        SUNNY     79  20  11 N23G30    29.91S
6HR MIN TEMP:  72; 6HR MAX TEMP:  80;

$$

NVZ020-UTZ003-290100-
SOUTHERN NEVADA-UTAH

CITY           SKY/WX    TMP DP  RH WIND       PRES   REMARKS
LAS VEGAS      MOSUNNY   72  11   9 NW15      29.98F
6HR MIN TEMP:  63; 6HR MAX TEMP:  73;

SALT LAKE CITY PTSUNNY   54  32  43 NW21      30.15R
6HR MIN TEMP:  48; 6HR MAX TEMP:  54;

$$

NMZ009-TXZ055-290100-
NEW MEXICO-WEST TEXAS

CITY           SKY/WX    TMP DP  RH WIND       PRES   REMARKS
ALBUQUERQUE    PTSUNNY   49  35  58 NE9       29.81S
6HR MIN TEMP:  41; 6HR MAX TEMP:  55; 6HR PCP:  0.11;

EL PASO        MOSUNNY   62  25  24 SW13G24   29.80S
6HR MIN TEMP:  53; 6HR MAX TEMP:  66; 6HR PCP: TRACE;

$$


........................KEY........................
SKY/WX - SKY CONDITION/WEATHER
TMP    - TEMPERATURE IN FAHRENHEIT
DP     - DEW POINT IN FAHRENHEIT
RH     - RELATIVE HUMIDITY IN PERCENT
WIND   - DIRECTION AND SPEED IN MILES PER HOUR (MPH)
VRB    - VARIABLE WIND DIRECTION
PRES   - MEAN SEA LEVEL PRESSURE IN INCHES OF MERCURY
         F - FALLING PRESSURE   R - RISING PRESSURE
         S - STEADY PRESSURE
VSB    - VISIBILITY IN MILES
HX     - HEAT INDEX IN FAHRENHEIT
WCI    - WIND CHILL INDEX IN FAHRENHEIT
TC     - TEMPERATURE IN CELSIUS WHICH IS ALSO KNOWN AS
         TEMPERATURE IN CENTIGRADE
AFB    - AIR FORCE BASE
         LUKE AFB IS LUKE AIR FORCE BASE
         DAVIS-MONTHAN IS DAVIS-MONTHAN AIR FORCE BASE
NAS    - NAVAL AIR STATION
         EL CENTRO NAS IS EL CENTRO NAVAL AIR STATION
N/A    - NOT AVAILABLE





USA.gov is the U.S. government's official web portal to all federal, state and local government web resources and services.